• Join FlightAware (Why Join?)
  • Login
  • US Flag 
06:22PM EDT


 

Airport Tracker/Info


-or-


 

Live Flight TrackerFlight Track Log ✈ CTL21 ✈ 24-Jun-2013 ✈ KAZO - KBKL

Flight Track Log - Related Links

Times and Time Zones

All times are in EDT time to prevent confusion due to time zone crossing. See the CTL21 flight status page for this flight to view local times or setup timezone preferences in your user account.

Time Position Orientation Groundspeed Altitude Reporting Facility
EDT Latitude Longitude Course Direction KTS MPH feet Rate Location/Type
05:23PM 42.1531 -85.4081 122° Southeast 144 166 3,400  Level Chicago Center
05:24PM 42.1314 -85.3614 122° Southeast 147 169 4,000 480 Climbing Chicago Center
05:25PM 42.1108 -85.3153 121° Southeast 145 167 4,400 480 Climbing Chicago Center
05:26PM 42.1711 -85.1755 103° East  Level Estimated
05:26PM 42.0908 -85.2675 119° Southeast 145 167 5,000  Level Chicago Center
05:27PM 42.1604 -85.1129 103° East  Level Estimated
05:27PM 42.0731 -85.2186 116° Southeast 145 167 5,600  Level Chicago Center
05:28PM 42.0528 -85.1694 119° Southeast 148 170 6,100 480 Climbing Chicago Center
05:29PM 42.0272 -85.1075 119° Southeast 155 178 6,600 360 Climbing Chicago Center
05:30PM 42.0042 -85.0542 120° Southeast 161 185 6,900 240 Climbing Chicago Center
05:31PM 41.9825 -84.9969 117° Southeast 168 193 7,200  Climbing Chicago Center
05:32PM 41.9581 -84.9339 118° Southeast 182 209 7,000 -60 Descending Chicago Center
05:33PM 41.9342 -84.8686 116° Southeast 192 221 7,100  Climbing Chicago Center
05:34PM 41.9114 -84.8092 117° Southeast 183 211 7,000 -60 Descending Chicago Center
05:35PM 41.8889 -84.7475 116° Southeast 183 211 7,000  Level Chicago Center
05:36PM 41.8669 -84.6867 116° Southeast 182 209 7,100  Climbing Chicago Center
05:37PM 41.8411 -84.6139 115° Southeast 179 206 7,000  Descending Chicago Center
05:38PM 41.8183 -84.5558 118° Southeast 177 204 7,100  Climbing Chicago Center
05:39PM 41.7956 -84.4972 118° Southeast 177 204 7,000 -60 Descending Chicago Center
05:40PM 41.7733 -84.4369 116° Southeast 179 206 7,000  Level Chicago Center
05:41PM 41.7500 -84.3783 118° Southeast 179 206 7,000  Level Chicago Center
05:42PM 41.7267 -84.3192 118° Southeast 179 206 7,000  Level Chicago Center
05:43PM 41.6992 -84.2439 116° Southeast 183 211 7,000  Level Chicago Center
05:44PM 41.6833 -84.1789 108° East 185 213 7,000  Level Chicago Center
05:58PM 41.6394 -83.2367 93° East 181 208 7,000  Level Cleveland Center
05:59PM 41.6331 -83.1558 96° East 175 201 7,000  Level Cleveland Center
06:00PM 41.6322 -83.0892 91° East 181 208 7,000  Level Cleveland Center
06:01PM 41.6275 -83.0222 95° East 178 205 7,000  Level Cleveland Center
06:03PM 41.6228 -82.9469 95° East 182 209 7,100  Climbing Cleveland Center
06:03PM 41.6219 -82.8831 91° East 185 213 7,000 -60 Descending Cleveland Center
06:05PM 41.6153 -82.8078 97° East 189 217 7,000  Level Cleveland Center
06:06PM 41.6086 -82.7214 96° East 186 214 7,000 -60 Level Cleveland Center
06:07PM 41.6033 -82.6714 98° East 187 215 6,900 -420 Descending Cleveland Center
06:08PM 41.6047 -82.5908 89° East 210 242 6,300 -600 Descending Cleveland Center
06:09PM 41.6039 -82.5131 91° East 211 243 5,700 -600 Descending Cleveland Center
06:10PM 41.6053 -82.4269 89° East 208 239 5,100 -540 Descending Cleveland Center
06:11PM 41.6067 -82.3492 89° East 208 239 4,600 -540 Descending Cleveland Center
06:12PM 41.6078 -82.2744 89° East 204 235 4,100 -480 Descending Cleveland Center
06:13PM 41.6067 -82.1967 91° East 203 234 3,700 -600 Descending Cleveland Center
06:14PM 41.6036 -82.1217 93° East 201 231 3,000 -540 Descending Cleveland Center
06:15PM 41.6025 -82.0467 91° East 190 219 2,700 -480 Descending Cleveland Center
06:16PM 41.5972 -81.9742 96° East 193 222 2,100 -600 Descending Cleveland Center
06:17PM 41.5875 -81.9044 101° East 187 215 1,600 -300 Descending Cleveland Center
06:18PM 41.5756 -81.8489 106° East 167 192 1,600  Level Cleveland Center
06:19PM 41.5681 -81.7847 99° East 165 190 1,600  Level Cleveland Center
06:20PM 41.5622 -81.7264 98° East 163 188 1,600 -180 Level Cleveland Center
06:21PM 41.5419 -81.6817 121° Southeast 146 168 1,300 -300 Descending Cleveland Center
06:23PM 41.5167 -81.6667 95° East  Level FlightAware Approximate
06:30PM 41.5175 -81.6833 95° East  Level Estimated